Find Kosmos-2403

NORAD ID: 28113 Int'l Des: 2003-056 Owner: KVR/IACG Country: RU Constellation: GLONASS operational
MEOCIRCULAR

Aktuelle Ansicht

3D-Globus wird geladen...

Über Kosmos-2403

Beschreibung wird geladen...

Nächste Überflüge

Passes for default location (London). Set your location on the main map for personalized predictions.

Höhenverlauf

Loading altitude history...

Zweizeiliger Elementsatz

1 28113U 03056B 26150.20309072 -.00000063 00000-0 00000+0 0 9995
2 28113 64.2599 62.8243 0051305 72.3937 115.0914 2.13105113174866
Epoch: 30. Mai 2026 • Age: 26 hours

Aktueller Status

Höhe 19216.4 km
Geschwindigkeit 3.94 km/s
Subsatellitenpunkt -44.35°S, 37.64°E
Startdatum 10. Dez. 2003
Alter 22.4 years
Typ other

Technische Details

Klassifizierung Payload
Masse 1415.00 kg
Trockenmasse 1200.00 kg
Gesamtmasse 1415.00 kg
Länge 4.00 m
Durchmesser 1.50 m
Spannweite 7.80 m
Form Cyl + Ant + 2 Pan
Hersteller POL
Bus-Typ Uragan
Phasenstatus In Orbit
Besitzer/Staat KVR/IACG/RU

Most Searched